Location: Carlisle
(34.5501°N, 84.5969°W)
Time: 08:18:20
(UTC+00:00)

BlueWalker 3 - Visible Passes

Search period start: 04 December 2022 00:00
Search period end: 14 December 2022 00:00
Orbit: 501 x 519 km, 53.2° (Epoch: 03 December)

Date Brightness Start Highest point End Pass type
(mag) Time Alt. Az. Time Alt. Az. Time Alt. Az.
08 Dec 4.3 00:07:46 10° NNW 00:08:30 13° N 00:08:30 13° N visible
08 Dec 3.7 23:49:17 10° NNW 23:51:16 18° NNE 23:51:16 18° NNE visible
09 Dec 3.4 23:30:48 10° NNW 23:33:43 20° NNE 23:34:14 19° NE visible
10 Dec 5.0 01:08:49 10° NW 01:09:06 12° WNW 01:09:06 12° WNW visible
10 Dec 3.3 23:12:19 10° NNW 23:15:20 21° NNE 23:17:27 14° ENE visible
11 Dec 4.0 00:50:26 10° WNW 00:52:21 26° WNW 00:52:21 26° WNW visible
11 Dec 3.3 22:53:50 10° NNW 22:56:55 22° NE 23:00:01 10° E visible
12 Dec 3.0 00:32:02 10° WNW 00:35:42 42° SW 00:36:00 41° SW visible
13 Dec 3.3 00:13:38 10° WNW 00:17:15 38° SW 00:20:16 14° SSE visible
